Regional Weather Roundup
Issued by NWS

Home | Current Version | Previous Version | Text Only | Print | Product List | Glossary Off
Versions: 1 2 3 4 5 6 7 8 9 10 11 12 13 14 15 16 17 18 19 20 21 22 23 24 25 26 27 28 29 30 31 32 33 34 35 36 37 38 39 40 41 42 43 44 45 46 47 48 49 50

000
ASUS43 KIND 241609
RWRIN

WEATHER ROUNDUP FOR INDIANA
NATIONAL WEATHER SERVICE INDIANAPOLIS IN
1100 AM EST FRI FEB 24 2017

NOTE: "FAIR" INDICATES FEW OR NO CLOUDS BELOW 12,000 FEET WITH NO
SIGNIFICANT WEATHER AND/OR OBSTRUCTIONS TO VISIBILITY.

* - STATION DOES NOT REPORT WEATHER SUCH AS PRECIPITATION OR FOG.

+ - STATION NOT QUALITY CONTROLLED BY THE NATIONAL WEATHER SERVICE.
    USE DATA WITH CAUTION...ESPECIALLY DEWPOINT AND RELATIVE
    HUMIDITY OBSERVATIONS.

INZ001>003-010>013-019-020-241700-
NORTHWEST INDIANA

CITY           SKY/WX    TMP DP  RH WIND       PRES   REMARKS
GARY /AIRPORT/ CLOUDY    41  41 100 N6        29.49S FOG
KNOX *+        CLOUDY    63  37  39 S17G26    29.47S
LA PORTE +     CLOUDY    62  56  83 SW13G20   29.47F
MICHIGAN CITY+ CLOUDY    46  46 100 CALM      29.48F FOG
MONTICELLO +   PTSUNNY   64  55  72 S15G25    29.48F
RENSSELAER +   MOSUNNY   64  59  82 S17G28    29.47F
VALPARAISO     CLOUDY    63  58  83 SW17      29.47F

$$

LMZ046-743>745-241700-
SOUTHERN LAKE MICHIGAN

STATION/POSITION TIME  TEMP    WIND        PRES    WAVE
                       AIR SEA DIR/SP/G            HT
                 (UTC) (F)     (DEG/KT/KT) (MB)    (FT)
BURNS HARBOR     1530   38     250/  6/  7  999.3S
MICHIGAN CITY    1540   38     210/  6/  7   N/A

$$

INZ004-005-014>016-021>024-241700-
NORTH CENTRAL INDIANA

CITY           SKY/WX    TMP DP  RH WIND       PRES   REMARKS
ELKHART        PTSUNNY   63  55  77 S10G18    29.49F
GOSHEN         CLOUDY    64  54  69 S17G28    29.50S
LOGANSPORT +   PTSUNNY   64  54  68 SW23G33   29.51F
PERU/GRISSOM   PTSUNNY   68  56  65 S25G37    29.47F
ROCHESTER +    PTSUNNY   66  55  68 SW17G24   29.50F
SOUTH BEND     CLOUDY    62  56  80 SW15      29.49R
WARSAW +       PTSUNNY   64  55  72 S10G23    29.51S

$$

INZ006>009-017-018-025>027-241700-
NORTHEAST INDIANA

CITY           SKY/WX    TMP DP  RH WIND       PRES   REMARKS
ANGOLA *+      MOSUNNY   63  59  88 S14       29.52R
AUBURN +       MOSUNNY   66  54  63 SW14G23   29.53F
FORT WAYNE     PTSUNNY   67  56  67 S23G32    29.52F
HUNTINGTON +   MOSUNNY   67  55  65 SW18G29   29.53S
KENDALLVILLE + CLOUDY    64  57  78 SW13G28   29.53S

$$

INZ028-029-035-036-043>045-051>053-241700-
WEST CENTRAL INDIANA

CITY           SKY/WX    TMP DP  RH WIND       PRES   REMARKS
LAFAYETTE      PTSUNNY   65  55  70 S12G25    29.49S
TERRE HAUTE    CLOUDY    67  55  65 S16G37    29.54S

$$

INZ030>032-037>040-046>048-054>057-064-065-241700-
CENTRAL INDIANA

CITY           SKY/WX    TMP DP  RH WIND       PRES   REMARKS
ANDERSON       MOSUNNY   66  55  68 S23G35    29.57F
CP ATTERBURY + MOSUNNY   70  55  60 S20G25    29.59F
COLUMBUS       PTSUNNY   68  59  73 S25G35    29.61F
FRANKFORT +    PTSUNNY   69  57  65 SW22G31   29.53F
GREENWOOD *+   CLOUDY    69  57  63 S18       29.58F
INDIANAPOLIS   PTSUNNY   69  52  54 S30       29.55F
-EAGLE CREEK   CLOUDY    70  52  52 SW18G30   29.54F
KOKOMO +       CLOUDY    68  57  68 S20G31    29.52F HAZE
MARION +       MOSUNNY   65  55  70 S26G32    29.54F
MT COMFORT *+  CLOUDY    66  55  68 S18G25    29.56F
SHELBYVILLE    MOSUNNY   69  56  62 S23G29    29.58F
ZIONSVILLE +   CLOUDY    69  54  60 S26G33    29.54F

$$

INZ033-034-041-042-049-050-058-059-241700-
EAST CENTRAL INDIANA

CITY           SKY/WX    TMP DP  RH WIND       PRES   REMARKS
MUNCIE         MOSUNNY   68  56  65 S22G36    29.56F

$$

INZ060-061-067>069-081>083-085>088-241700-
SOUTHWEST INDIANA

CITY           SKY/WX    TMP DP  RH WIND       PRES   REMARKS
EVANSVILLE     MOSUNNY   71  55  56 S20G28    29.61F
HUNTINGBURG *+ PTSUNNY   70  57  64 S23G29    29.62F
WASHINGTON +   MOSUNNY   69  53  57 S22G36    29.57F

$$

INZ062-063-066-070>080-084-089>092-241700-
SOUTH CENTRAL AND SOUTHEAST INDIANA

CITY           SKY/WX    TMP DP  RH WIND       PRES   REMARKS
BLOOMINGTON    CLOUDY    70  52  52 SW23G31   29.57F
MADISON *+     PTSUNNY   70  54  56 S15G23    29.68F
NORTH VERNON + MOSUNNY   68  55  64 S18G25    29.65F
SEYMOUR +      MOSUNNY   72  55  56 S23G30    29.62F

$$





USA.gov is the U.S. government's official web portal to all federal, state and local government web resources and services.